Regional Weather Roundup
Issued by NWS

Home | Current Version | Previous Version | Text Only | Print | Product List | Glossary Off
Versions: 1 2 3 4 5 6 7 8 9 10 11 12 13 14 15 16 17 18 19 20 21 22 23 24 25 26 27

000
ASUS45 KCYS 271410
RWRWY

WYOMING REGIONAL WEATHER ROUNDUP
NATIONAL WEATHER SERVICE CHEYENNE WY
800 AM MDT FRI MAY 27 2016

NOTE:  "FAIR" INDICATES FEW OR NO CLOUDS BELOW 12,000 FEET
WITH NO SIGNIFICANT WEATHER AND/OR OBSTRUCTIONS TO VISIBILITY.

WYZ001-271500-
YELLOWSTONE NATIONAL PARK

CITY           SKY/WX    TMP DP  RH WIND       PRES   REMARKS
LK YELLOWSTONE   N/A     34  32  92 CALM      30.07S
W YELLOWSTONE  NOT AVBL

$$
WYZ002>013-054>058-071-098>099-271500-
NORTHERN WYOMING

CITY           SKY/WX    TMP DP  RH WIND       PRES   REMARKS
JACKSON        MOSUNNY   41  37  87 CALM      30.04R
CODY           FAIR      52  39  62 CALM      29.93S
GREYBULL       FAIR      51  45  79 CALM      29.92S
WORLAND        FAIR      49  44  83 CALM      29.93S
SHERIDAN       PTSUNNY   53  42  66 CALM      29.91S
BUFFALO          N/A     53  40  61 S3        29.95R
GILLETTE       CLOUDY    52  45  77 NW6       29.91F
HULETT         PTSUNNY   50  45  81 W3        29.91S
NEWCASTLE      FAIR      52  37  58 N9        29.90S

$$
WYZ014>020-022>026-101>103-271500-
CENTRAL WYOMING

CITY           SKY/WX    TMP DP  RH WIND       PRES   REMARKS
BIG PINEY      CLOUDY    43  35  73 NE5       30.04S
PINEDALE       FAIR      41  37  87 CALM      30.05S
DUBOIS         FAIR      43  32  65 NW12      30.00S
LANDER         FAIR      49  36  61 NW5       29.96R
RIVERTON       FAIR      51  37  58 CALM      29.98R
CASPER         FAIR      49  39  68 W8        29.95F
DOUGLAS          N/A    N/A N/A N/A MISG      29.94S

$$
WYZ021-027>030-104>119-271500-
SOUTHERN WYOMING

CITY           SKY/WX    TMP DP  RH WIND       PRES   REMARKS
EVANSTON       CLOUDY    42  35  76 S8        30.05R
KEMMERER         N/A     45  36  70 CALM      30.05R
FORT BRIDGER   PTSUNNY   48  39  71 W9        30.06S
ROCK SPRINGS   FAIR      43  42  97 W8        30.02R
DIXON          CLOUDY    43  38  82 E3        30.03S
RAWLINS        FAIR      47  37  68 NW3       30.00S
SARATOGA       FAIR      45  36  70 NW7       30.01S
LARAMIE        FAIR      43  36  76 NW12      29.97R
CHEYENNE       FAIR      48  36  63 N18G26    29.90R
TORRINGTON     CLOUDY    54  42  64 N8        29.87R
PINE BLUFFS    CLOUDY    46  43  87 N16G22    29.89R

$$




USA.gov is the U.S. government's official web portal to all federal, state and local government web resources and services.